TimeCDT,TemperatureF,Dew PointF,Humidity,Sea Level PressureIn,VisibilityMPH,Wind Direction,Wind SpeedMPH,Gust SpeedMPH,PrecipitationIn,Events,Conditions,WindDirDegrees,DateUTC
12:53 AM,62.1,55.9,80,30.11,10.0,Calm,Calm,-,N/A,,Scattered Clouds,0,2013-08-16 05:53:00
1:53 AM,59.0,55.9,90,30.12,10.0,Calm,Calm,-,N/A,,Clear,0,2013-08-16 06:53:00
2:53 AM,57.0,55.0,93,30.12,8.0,Calm,Calm,-,N/A,,Mostly Cloudy,0,2013-08-16 07:53:00
3:53 AM,57.0,55.0,93,30.13,10.0,Calm,Calm,-,N/A,,Partly Cloudy,0,2013-08-16 08:53:00
4:53 AM,55.9,55.0,97,30.13,8.0,Calm,Calm,-,N/A,,Clear,0,2013-08-16 09:53:00
5:53 AM,57.9,55.0,90,30.13,10.0,Calm,Calm,-,N/A,,Clear,0,2013-08-16 10:53:00
6:53 AM,57.0,54.0,89,30.14,8.0,Calm,Calm,-,N/A,,Clear,0,2013-08-16 11:53:00
7:53 AM,60.1,55.9,86,30.15,10.0,West,3.5,-,N/A,,Clear,260,2013-08-16 12:53:00
8:53 AM,66.0,57.0,73,30.16,10.0,West,8.1,-,N/A,,Clear,260,2013-08-16 13:53:00
9:53 AM,73.0,57.0,57,30.15,10.0,WSW,9.2,-,N/A,,Partly Cloudy,250,2013-08-16 14:53:00
10:53 AM,75.0,55.0,50,30.15,10.0,West,5.8,-,N/A,,Partly Cloudy,260,2013-08-16 15:53:00
11:53 AM,79.0,53.1,40,30.15,10.0,WSW,12.7,-,N/A,,Partly Cloudy,240,2013-08-16 16:53:00
12:53 PM,78.1,53.1,42,30.14,10.0,SW,11.5,-,N/A,,Mostly Cloudy,230,2013-08-16 17:53:00
1:53 PM,78.1,53.1,42,30.14,10.0,SSW,12.7,17.3,N/A,,Mostly Cloudy,210,2013-08-16 18:53:00
2:53 PM,80.1,51.1,36,30.13,10.0,SSW,10.4,18.4,N/A,,Mostly Cloudy,200,2013-08-16 19:53:00
3:53 PM,79.0,50.0,36,30.13,10.0,South,12.7,-,N/A,,Partly Cloudy,180,2013-08-16 20:53:00
4:53 PM,78.1,48.0,35,30.13,10.0,SW,10.4,19.6,N/A,,Mostly Cloudy,220,2013-08-16 21:53:00
5:53 PM,77.0,48.0,36,30.13,10.0,SSW,10.4,-,N/A,,Partly Cloudy,210,2013-08-16 22:53:00
6:53 PM,75.9,50.0,40,30.13,10.0,South,10.4,-,N/A,,Partly Cloudy,180,2013-08-16 23:53:00
7:53 PM,71.1,53.1,53,30.13,10.0,SSW,8.1,-,N/A,,Clear,200,2013-08-17 00:53:00
8:53 PM,64.9,52.0,63,30.13,10.0,SSW,5.8,-,N/A,,Clear,200,2013-08-17 01:53:00
9:53 PM,62.1,52.0,70,30.14,10.0,South,5.8,-,N/A,,Clear,190,2013-08-17 02:53:00
10:53 PM,60.1,52.0,75,30.14,10.0,South,5.8,-,N/A,,Clear,190,2013-08-17 03:53:00
11:53 PM,60.1,53.1,78,30.13,10.0,South,5.8,-,N/A,,Clear,180,2013-08-17 04:53:00